EW6254 Weather Reports


time (UTC)temp
F
wind
direction
speed
knots
gust
knots
rain 1hr
in
rain 24hr
in
rain mn
in
humidity
%
barometer
mb
20170926034515 58 0 0.0 3.5 0.12 0.98 0.98 96 1012.9
20170926033514 58 0 0.9 3.5 0.16 0.96 0.96 96 1012.7
20170926032455 58 0 1.7 6.1 0.20 0.94 0.94 96 1012.6
20170926031444 58 0 0.9 6.1 0.33 0.90 0.90 96 1012.5
20170926030408 58 0 1.7 4.3 0.12 0.80 0.81 95 1012.3
20170926025407 58 0 3.5 6.1 0.18 0.79 0.79 95 1012.1
20170926024418 58 0 2.6 7.0 0.23 0.75 0.76 95 1012.1
20170926023345 59 0 1.7 7.0 0.00 0.73 0.73 95 1012.2
20170926022351 59 0 1.7 7.0 0.04 0.73 0.73 95 1012.3
20170926021406 59 0 1.7 6.1 0.04 0.72 0.72 95 1012.3
20170926020354 59 0 2.6 5.2 0.08 0.72 0.72 95 1012.4
20170926015335 59 0 1.7 6.1 0.06 0.71 0.71 95 1012.5
20170926014340 59 0 3.5 7.8 0.05 0.70 0.70 95 1012.3
20170926013311 59 0 4.3 8.7 0.00 0.69 0.68 95 1012.4
20170926012322 59 0 3.5 8.7 0.00 0.68 0.67 95 1012.4
20170926011255 59 0 2.6 7.0 0.00 0.68 0.67 95 1012.3
20170926010258 60 0 3.5 6.1 0.00 0.67 0.66 95 1012.2
20170926005254 60 0 3.5 8.7 0.00 0.67 0.66 95 1012.0
20170926004219 60 0 3.5 8.7 0.00 0.67 0.66 95 1011.8
20170926003210 61 0 2.6 7.8 0.00 0.66 0.66 95 1012.1
20170926002153 61 19 2.6 7.8 0.00 0.66 0.66 95 1012.0
20170926001123 61 348 2.6 7.8 0.00 0.66 0.66 95 1011.5
20170926000133 62 11 3.5 7.8 0.00 0.66 0.66 95 1011.6
20170925235108 62 0 1.7 6.1 0.00 0.66 0.66 95 1011.3
20170925234128 62 0 3.5 8.7 0.00 0.66 0.66 95 1010.7
20170925233108 62 0 4.3 8.7 0.00 0.66 0.66 95 1010.7
20170925232117 63 0 3.5 7.0 0.00 0.66 0.66 95 1010.7
20170925231125 63 0 3.5 7.8 0.00 0.66 0.66 95 1011.0
20170925230105 63 0 2.6 7.8 0.00 0.66 0.66 95 1011.2
20170925225031 63 0 2.6 6.1 0.00 0.65 0.65 95 1011.0
20170925224006 63 327 2.6 7.0 0.00 0.65 0.65 95 1010.7
20170925222959 63 355 2.6 7.0 0.00 0.65 0.65 95 1010.6
20170925222002 63 344 3.5 6.1 0.00 0.65 0.65 95 1010.7
20170925220932 63 348 0.9 3.5 0.00 0.65 0.65 95 1010.9
20170925215904 63 0 0.9 4.3 0.00 0.65 0.65 95 1011.4
20170925214917 63 331 0.9 4.3 0.00 0.65 0.65 95 1011.6
20170925213901 63 355 0.9 3.5 0.00 0.65 0.65 95 1011.5
20170925212901 63 308 1.7 4.3 0.00 0.65 0.65 95 1011.1
20170925211854 64 0 0.9 4.3 0.00 0.65 0.65 95 1011.0
20170925210824 64 355 1.7 5.2 0.00 0.64 0.65 95 1011.1
20170925205750 63 321 1.7 5.2 0.00 0.64 0.64 95 1010.8
20170925204715 63 335 0.9 4.3 0.00 0.64 0.64 95 1011.0
20170925203731 63 0 1.7 6.1 0.00 0.64 0.64 95 1010.7
20170925202738 63 0 2.6 6.1 0.00 0.64 0.64 95 1010.7
20170925201742 63 9 1.7 3.5 0.00 0.64 0.64 95 1011.0
20170925200757 63 329 1.7 5.2 0.00 0.64 0.64 95 1010.7
20170925195754 63 338 1.7 5.2 0.00 0.64 0.64 95 1010.5
20170925194809 63 319 1.7 7.8 0.00 0.64 0.64 95 1010.6
20170925193821 63 288 1.7 7.8 0.00 0.73 0.64 95 1010.3
20170925192745 64 355 2.6 7.0 0.00 0.73 0.64 95 1010.7
20170925191754 65 355 1.7 6.1 0.00 0.77 0.64 95 1010.9
20170925190732 65 0 0.9 4.3 0.00 0.77 0.64 95 1011.0
20170925185713 65 313 0.9 4.3 0.00 0.77 0.64 95 1011.0
20170925184651 65 317 0.9 4.3 0.00 0.77 0.64 95 1011.3
20170925183649 65 350 0.9 3.5 0.00 0.77 0.64 95 1011.2
20170925182706 65 10 0.9 5.2 0.00 0.77 0.64 95 1011.1
20170925181629 64 5 2.6 5.2 0.00 0.77 0.64 95 1011.1
20170925180635 64 0 1.7 3.5 0.05 0.77 0.64 95 1011.1
20170925175658 64 0 0.9 3.5 0.05 0.77 0.64 95 1011.3
20170925174625 64 0 0.9 5.2 0.00 0.76 0.62 96 1011.0
20170925173553 63 0 2.6 5.2 0.04 0.75 0.62 95 1010.9
20170925172606 63 0 1.7 5.2 0.09 0.75 0.62 95 1010.8
20170925171547 63 0 1.7 5.2 0.09 0.74 0.61 95 1011.2
20170925170553 63 0 0.9 2.6 0.09 0.72 0.58 95 1011.3
20170925165535 63 0 0.9 2.6 0.09 0.70 0.57 95 1011.6
20170925164542 63 0 0.0 0.0 0.07 0.68 0.56 95 1011.9
20170925163542 63 0 0.9 3.5 0.18 0.67 0.53 95 1012.2
20170925162548 63 0 0.0 2.6 0.52 0.56 0.44 95 1012.8
20170925161554 63 0 0.0 0.9 0.09 0.54 0.41 95 1012.2
20170925160558 63 0 0.0 0.0 0.12 0.52 0.40 95 1012.3
20170925155613 62 0 1.7 4.3 0.05 0.48 0.35 95 1012.5
20170925154603 62 0 0.0 0.9 0.07 0.47 0.35 95 1012.1
20170925153604 62 0 0.9 3.5 0.48 0.45 0.33 95 1012.0
20170925152609 62 0 0.9 3.5 0.00 0.42 0.29 95 1011.9
20170925151625 62 0 0.9 5.2 0.00 0.42 0.29 95 1011.9
20170925150611 62 0 0.9 5.2 0.00 0.42 0.29 95 1011.9
20170925145545 62 0 1.7 5.2 0.00 0.42 0.29 96 1012.0
20170925144522 61 0 2.6 8.7 0.00 0.42 0.29 96 1011.7
20170925143451 60 0 2.6 8.7 0.00 0.42 0.29 96 1011.5
20170925142444 60 0 2.6 8.7 0.00 0.42 0.29 96 1011.4
20170925141430 59 0 2.6 7.0 0.00 0.42 0.29 96 1011.6
20170925140441 58 0 2.6 7.0 0.00 0.42 0.29 95 1011.6
20170925135453 58 0 2.6 7.8 0.00 0.42 0.29 96 1011.8
20170925134514 58 0 3.5 7.8 0.00 0.42 0.29 95 1011.9
20170925133451 57 0 4.3 9.6 0.00 0.42 0.29 95 1012.0
20170925132458 58 0 3.5 9.6 0.00 0.42 0.29 95 1012.0
20170925131421 58 0 4.3 8.7 0.00 0.42 0.29 95 1012.3
20170925130432 58 0 2.6 7.8 0.00 0.42 0.29 95 1012.2
20170925125431 58 0 3.5 7.8 0.00 0.42 0.29 95 1012.1
20170925124436 58 0 2.6 7.0 0.00 0.42 0.29 95 1012.1
20170925123427 59 0 3.5 7.0 0.00 0.42 0.29 95 1012.1
20170925122354 59 0 3.5 7.0 0.00 0.42 0.29 95 1012.1
20170925121405 60 0 2.6 7.0 0.00 0.42 0.29 95 1012.0
20170925120417 60 0 2.6 7.0 0.00 0.42 0.29 95 1012.0
20170925115406 60 0 2.6 7.0 0.00 0.42 0.29 95 1012.1
20170925114355 61 0 2.6 7.0 0.00 0.42 0.29 95 1012.0
20170925113338 61 0 2.6 7.0 0.00 0.42 0.29 95 1012.0
20170925112320 61 0 1.7 7.0 0.00 0.42 0.29 95 1011.8
20170925111313 60 0 0.0 1.7 0.00 0.42 0.29 95 1011.3
20170925110312 60 0 0.9 4.3 0.00 0.42 0.29 95 1010.9
20170925105257 60 0 1.7 6.1 0.00 0.42 0.29 95 1010.7
20170925104244 60 0 3.5 7.8 0.00 0.42 0.29 95 1010.5
20170925103208 60 0 2.6 6.1 0.00 0.42 0.29 95 1010.6
20170925102215 60 0 2.6 6.1 0.00 0.42 0.29 95 1010.6
20170925101144 60 0 3.5 6.1 0.00 0.42 0.29 95 1010.6
20170925100149 60 0 1.7 6.1 0.00 0.42 0.29 95 1010.7
20170925095151 60 0 1.7 6.1 0.00 0.42 0.29 95 1011.0
20170925094118 60 0 2.6 8.7 0.00 0.42 0.29 95 1011.3
20170925093053 61 0 1.7 8.7 0.00 0.42 0.29 94 1012.1
20170925092043 61 0 2.6 7.8 0.00 0.42 0.29 94 1010.9
20170925091028 61 0 3.5 11.3 0.00 0.42 0.29 94 1010.8
20170925090031 61 0 5.2 11.3 0.00 0.42 0.29 94 1010.7
20170925085048 62 0 3.5 7.8 0.00 0.42 0.29 94 1010.6
20170925084030 63 0 2.6 12.2 0.00 0.42 0.29 94 1010.5
20170925083027 63 0 3.5 12.2 0.00 0.42 0.29 94 1010.0
20170925082034 62 0 1.7 7.0 0.00 0.42 0.29 94 1009.7
20170925080958 62 0 2.6 7.8 0.00 0.42 0.29 94 1009.6
20170925075946 62 0 3.5 7.8 0.00 0.42 0.29 94 1009.6
20170925074958 62 0 3.5 7.8 0.00 0.42 0.29 94 1009.9
20170925073927 62 0 3.5 8.7 0.00 0.42 0.29 93 1010.0
20170925072934 62 0 3.5 10.4 0.08 0.42 0.29 93 1010.2
20170925071900 63 0 4.3 8.7 0.14 0.41 0.28 93 1010.3
20170925070844 63 0 3.5 8.7 0.18 0.38 0.25 92 1010.9
20170925065836 63 0 2.6 7.0 0.23 0.34 0.21 92 1011.4
20170925064853 63 0 0.9 7.0 0.25 0.31 0.18 92 1011.9
20170925063818 63 0 0.0 0.0 0.11 0.28 0.14 91 1012.1
20170925062835 64 0 0.0 0.0 0.14 0.26 0.13 90 1012.2
20170925061830 64 0 0.0 0.0 0.79 0.20 0.08 90 1012.5
20170925060833 63 0 0.0 0.0 0.00 0.14 0.00 89 1012.2
20170925055835 63 0 0.0 0.0 0.00 0.14 0.00 89 1011.7
20170925054858 64 0 0.0 0.0 0.00 0.14 0.00 88 1011.4
20170925053854 64 287 1.7 10.4 0.00 0.14 0.00 88 1011.4
20170925052820 63 17 4.3 10.4 0.00 0.14 0.00 89 1010.8
20170925051807 63 0 5.2 9.6 0.00 0.14 0.00 89 1010.8
20170925050821 63 0 5.2 9.6 0.00 0.14 0.00 89 1011.0
20170925045819 63 17 3.5 9.6 0.00 0.14 0.14 88 1011.2
20170925044840 63 348 4.3 9.6 0.00 0.14 0.14 88 1011.4
20170925043803 63 279 3.5 8.7 0.00 0.14 0.14 89 1012.0
20170925042747 64 346 4.3 7.8 0.00 0.14 0.14 89 1011.1
20170925041721 64 355 3.5 7.8 0.00 0.14 0.14 89 1010.9
20170925040742 64 9 3.5 7.8 0.00 0.14 0.14 89 1010.9
20170925035746 64 9 3.5 7.8 0.00 0.14 0.14 89 1011.0